Location: Clifton Park
(41.4873°N, 81.8024°W)
Time: 18:31:49
(UTC+00:00)

CZ-4B R/B - Pass Details

Date: 21 January 2020
Orbit: 808 x 882 km, 99.1° (Epoch: 24 February)

Event Time Altitude Azimuth Distance (km) Brightness Sun altitude
Rises 11:13:48 0° 14° (NNE) 3,457 6.4 -17.5°
Reaches altitude 10° 11:16:13 10° 14° (NNE) 2,506 5.7 -17.1°
Maximum altitude 11:21:48 88° 103° (ESE) 855 3.2 -16.1°
Drops below altitude 10° 11:27:13 10° 195° (SSW) 2,440 5.6 -15.1°
Sets 11:29:32 0° 195° (SSW) 3,360 6.3 -14.7°
